Location: Newark
(25.0000°N, 73.5000°E)
Time: 01:19:12
(UTC+00:00)

Tiros 1 despin weight - Pass Details

Date: 01 March 2021
Orbit: 593 x 641 km, 48.2° (Epoch: 15 April)

Event Time Altitude Azimuth Distance (km) Brightness Sun altitude
Rises 03:19:01 0° 306° (NW) 2,937 ? 23.3°
Reaches altitude 10° 03:21:27 10° 299° (WNW) 2,025 ? 23.8°
Maximum altitude 03:25:51 42° 229° (SW) 910 ? 24.8°
Drops below altitude 10° 03:30:12 10° 158° (SSE) 2,003 ? 25.7°
Sets 03:32:36 0° 152° (SSE) 2,901 ? 26.2°
